KE9LZ Weather Reports


Display with metric or nautical units.
time (UTC)temp
F
wind
direction
speed
MPH
gust
MPH
rain 1hr
in
rain 24hr
in
rain mn
in
humidity
%
barometer
mb
20260505052002 52 318 12.0 22.0 0.00 0.00 0.00 47 1006.1
20260505051003 52 308 9.0 24.0 0.00 0.00 0.00 46 1006.0
20260505041003 56 350 5.0 16.0 0.00 0.00 0.00 43 1004.6
20260505040003 57 312 10.0 18.0 0.00 0.00 0.00 41 1004.4
20260505035003 57 297 9.0 16.0 0.00 0.00 0.00 40 1003.9
20260505034003 57 302 6.0 16.0 0.00 0.00 0.00 41 1003.5
20260505033003 57 307 9.0 17.0 0.00 0.00 0.00 40 1003.3
20260505031004 58 304 9.0 21.0 0.00 0.00 0.00 41 1002.5
20260505030004 58 298 13.0 30.0 0.00 0.00 0.00 41 1002.5
20260505025004 59 303 13.0 26.0 0.00 0.00 0.00 38 1002.2
20260505023003 60 301 14.0 28.0 0.00 0.00 0.00 36 1002.0
20260505022003 60 293 7.0 25.0 0.00 0.00 0.00 37 1001.9
20260505021004 61 286 13.0 29.0 0.00 0.00 0.00 35 1001.4
20260505020003 61 303 5.0 20.0 0.00 0.00 0.00 37 1001.1
20260505015003 62 297 15.0 21.0 0.00 0.00 0.00 36 1000.8
20260505014003 63 299 9.0 24.0 0.00 0.00 0.00 38 1000.8
20260505013003 63 254 5.0 18.0 0.00 0.00 0.00 37 1000.5
20260505012003 64 282 10.0 29.0 0.00 0.00 0.00 35 1000.3
20260505011003 64 288 10.0 17.0 0.00 0.00 0.00 35 1000.2
20260505005004 65 290 10.0 23.0 0.00 0.00 0.00 34 999.9
20260505004004 65 284 12.0 23.0 0.00 0.00 0.00 34 1000.0
20260505003004 66 293 7.0 23.0 0.00 0.00 0.00 34 999.9
20260505001003 66 283 13.0 23.0 0.00 0.00 0.00 33 999.4
20260505000003 67 280 13.0 18.0 0.00 0.00 0.00 33 999.1
20260504235003 68 295 13.0 18.0 0.00 0.00 0.00 32 998.8
20260504234003 68 292 9.0 23.0 0.00 0.00 0.00 33 999.1
20260504233003 68 285 6.0 30.0 0.00 0.00 0.00 33 998.9
20260504231003 69 270 10.0 16.0 0.00 0.00 0.00 32 998.7
20260504230003 69 268 9.0 29.0 0.00 0.00 0.00 32 998.8
20260504225003 69 288 12.0 24.0 0.00 0.00 0.00 33 998.8
20260504224003 70 295 17.0 32.0 0.00 0.00 0.00 32 998.8
20260504223003 70 294 11.0 26.0 0.00 0.00 0.00 34 998.7
20260504222003 71 300 17.0 31.0 0.00 0.00 0.00 33 998.7
20260504221003 72 303 15.0 22.0 0.00 0.00 0.00 34 998.2
20260504220003 73 269 11.0 23.0 0.00 0.00 0.00 33 998.1
20260504215004 73 300 14.0 28.0 0.00 0.00 0.00 34 997.8
20260504214003 75 287 9.0 21.0 0.00 0.00 0.00 35 997.7
20260504213003 75 275 14.0 22.0 0.00 0.00 0.00 34 997.4
20260504212003 76 283 9.0 32.0 0.00 0.00 0.00 32 997.4
20260504211004 76 272 17.0 28.0 0.00 0.00 0.00 32 997.6
20260504210003 76 279 17.0 35.0 0.00 0.00 0.00 32 997.7
20260504205002 77 265 14.0 26.0 0.00 0.00 0.00 32 997.3
20260504203004 77 262 11.0 26.0 0.00 0.00 0.00 32 997.4
20260504202003 77 266 13.0 33.0 0.00 0.00 0.00 34 997.6
20260504201003 77 276 16.0 25.0 0.00 0.00 0.00 33 997.7
20260504200003 77 241 5.0 23.0 0.00 0.00 0.00 36 997.6
20260504194003 76 256 14.0 22.0 0.00 0.00 0.00 34 997.8
20260504193003 76 260 12.0 32.0 0.00 0.00 0.00 35 998.0
20260504192003 76 253 13.0 23.0 0.00 0.00 0.00 35 998.1
20260504191003 77 279 11.0 20.0 0.00 0.00 0.00 34 997.9
20260504190003 77 253 12.0 22.0 0.00 0.00 0.00 34 998.0
20260504185003 76 242 12.0 22.0 0.00 0.00 0.00 34 997.9
20260504184003 76 293 9.0 23.0 0.00 0.00 0.00 35 998.1
20260504183003 76 256 13.0 23.0 0.00 0.00 0.00 34 998.0
20260504182004 76 232 10.0 22.0 0.00 0.00 0.00 35 998.0
20260504181003 75 259 10.0 28.0 0.00 0.00 0.00 34 998.1
20260504180003 76 248 14.0 29.0 0.00 0.00 0.00 34 997.9
20260504175003 76 218 14.0 25.0 0.00 0.00 0.00 33 998.2
20260504174003 76 252 12.0 24.0 0.00 0.00 0.00 33 998.4
20260504173003 75 230 20.0 31.0 0.00 0.00 0.00 33 998.3
20260504172003 75 249 13.0 33.0 0.00 0.00 0.00 34 998.5
20260504171003 75 221 11.0 29.0 0.00 0.00 0.00 34 998.6
20260504151003 68 199 12.0 24.0 0.00 0.00 0.00 41 1000.1
20260504141003 64 193 11.0 21.0 0.00 0.00 0.00 48 1001.0
20260504081004 49 158 3.0 5.0 0.00 0.00 0.00 73 1005.3